Regional Weather Roundup
Issued by NWS Sterling, VA

Home | Current Version | Previous Version | Graphics & Text | Print | Product List | Glossary On
Versions: 1 2 3 4 5 6 7 8 9 10 11 12 13 14 15 16 17 18 19 20 21 22 23 24 25 26 27 28 29 30 31 32 33 34 35 36 37 38 39 40 41 42 43 44 45 46 47 48 49 50
000
ASUS41 KLWX 291211
RWRLWX

REGIONAL WEATHER ROUNDUP
NATIONAL WEATHER SERVICE BALTIMORE MD/WASHINGTON DC
800 AM EDT MON MAY 29 2017

Note: "FAIR" indicates few or no clouds below 12,000 feet
with no significant weather and/or obstructions to visibility.
 TC=TEMPERATURE CELSIUS

 * =Non NWS site. Station does not report precipitation (e.g. rain,
    snow, etc.), thunder, or fog.

DCZ001-MDZ009-015-VAZ040>042-051-053>054-291300-
WASHINGTON METRO

CITY           SKY/WX    TMP DP  RH WIND       PRES   REMARKS
WASHINGTON NAT CLOUDY    65  64  97 NE5       29.85R FOG
DULLES         FOG       64  63  96 S3        29.85R VSB 1/4
ANDREWS AFB    CLOUDY    63  63 100 E5        29.84S FOG
FT BELVOIR     CLOUDY    64  63  94 CALM      29.86R
QUANTICO       CLOUDY    66  66 100 CALM      29.86R
COLLEGE PARK*  CLOUDY    62  61  95 CALM      29.84S
LEESBURG*      CLOUDY    66  66 100 CALM      29.86R FOG
MANASSAS*      CLOUDY    66  66 100 CALM      29.87R FOG
GAITHERSBURG*  CLOUDY    63  61  93 E3        29.86R

$$

MDZ006>007-011-014-291300-
BALTIMORE METRO

CITY           SKY/WX    TMP DP  RH WIND       PRES   REMARKS
BWI AIRPORT    CLOUDY    62  62 100 E5        29.85S FOG
MD SCIENCE CTR   N/A     63  61  93 MISG      29.86R
MARTIN STATE   CLOUDY    63  63 100 NE5       29.87R
ANNAPOLIS      CLOUDY    64  63  96 E5        29.85F
FORT MEADE*    CLOUDY    61  59  94 E3        29.88R

$$

MDZ012-015-019>023-291300-
MARYLAND EASTERN SHORE

CITY           SKY/WX    TMP DP  RH WIND       PRES   REMARKS
OCEAN CITY     CLOUDY    62  61  96 N8        29.84R
SALISBURY      CLOUDY    62  62 100 N6        29.84R
BAY BRIDGE AP* CLOUDY    63  61  94 E5        29.85S
CAMBRIDGE*     CLOUDY    63  61  94 N5        29.86R
EASTON*        CLOUDY    63  59  88 NE5       29.90R

$$

MDZ017>025-291300-
SOUTHERN MARYLAND

CITY           SKY/WX    TMP DP  RH WIND       PRES   REMARKS
PATUXENT RIVER CLOUDY    65  65 100 N7        29.85R
ST INIGOES     CLOUDY    66  65  96 CALM      29.84R FOG
LEONARDTOWN*   CLOUDY    63  63 100 NE3       29.86S

$$

MDZ003>005-291300-
NORTH CENTRAL MARYLAND

CITY           SKY/WX    TMP DP  RH WIND       PRES   REMARKS
FREDERICK*     CLOUDY    66  66 100 CALM      29.87R FOG
HAGERSTOWN APT CLOUDY    65  64  97 S6        29.84R FOG
WESTMINSTER*   CLOUDY    63  63 100 SE3       29.85R FOG

$$

MDZ501>502-291300-
WESTERN MARYLAND

CITY           SKY/WX    TMP DP  RH WIND       PRES   REMARKS
OAKLAND*       CLOUDY    55  54  94 W7        29.93R
CUMBERLAND*    CLOUDY    68  59  73 CALM      29.90R

$$

VAZ025>031-291300-
SHENANDOAH VALLEY

CITY           SKY/WX    TMP DP  RH WIND       PRES   REMARKS
WINCHESTER*    CLOUDY    63  63 100 SW5       29.85R FOG
FRONT ROYAL*   PTSUNNY   64  64 100 S5        29.86R
LURAY*         SUNNY     64  64 100 CALM      29.86S
NEW MARKET*    MOSUNNY   65  63  93 CALM      29.86S
STAUNTON*      SUNNY     64  62  95 SW5       29.91R
WAYNESBORO*    SUNNY     66  63  89 CALM      29.89R

$$

WVZ021-048>050-054>055-291300-
EASTERN WEST VIRGINIA PANHANDLE

CITY           SKY/WX    TMP DP  RH WIND       PRES   REMARKS
MARTINSBURG    CLOUDY    65  64  97 S6        29.84R FOG
PETERSBURG*    MOSUNNY   67  65  91 CALM      29.89R

$$

VAZ036>039-050-291300-
CENTRAL FOOTHILLS

CITY           SKY/WX    TMP DP  RH WIND       PRES   REMARKS
CHARLOTTESVILL CLOUDY    66  65  96 CALM      29.86R FOG
CULPEPER*      CLOUDY    66  66 100 SW3       29.87R
ORANGE*        CLOUDY    64  63  94 CALM      29.87R
GORDONSVILLE*  CLOUDY    65  65 100 CALM      29.86R
WARRENTON*     CLOUDY    67  64  89 SW5       29.87R FOG

$$

VAZ055>057-291300-
NORTH AND CENTRAL PIEDMONT

CITY           SKY/WX    TMP DP  RH WIND       PRES   REMARKS
FREDERICKSBRG* CLOUDY    68  68 100 CALM      29.86R
STAFFORD*      CLOUDY    66  66 100 CALM      29.90R FOG

$$

NCZ024-NYZ072-PAZ021-071-VAZ022-071-291300-
OTHER REGIONAL OBSERVATIONS

CITY           SKY/WX    TMP DP  RH WIND       PRES   REMARKS
NEW YORK CITY  CLOUDY    57  55  93 VRB6      29.92S
PHILADELPHIA   LGT RAIN  59  57  93 E9        29.86S
PITTSBURGH     PTSUNNY   62  60  93 W8        29.87R
ROANOKE        MOSUNNY   70  60  70 W5        29.95R
RICHMOND       PTSUNNY   70  66  87 W8        29.85S
RALEIGH        MOSUNNY   72  66  81 SW5       29.94R

$$

ANZ530>537-291300-
MARINE OBSERVATIONS

STATION/POSITION TIME  TEMP    WIND        PRES
                       AIR SEA DIR/SP/G
                 (UTC) (F)     (DEG/KT/KT) (MB)
THOMAS PT LIGHT  1200   62 65   50/  7/  8   N/A
BALT KEY BRIDGE  1148   62      60/  5/  6 1010.9R
COVE POINT       1148   64      10/  7/ 10 1011.4R
LEWISETTA        1148   66 70   CALM  /  1 1010.7R
SOLOMONS ISLAND  1148   64 68  350/  4/  5   N/A
PINEY POINT      1148           70/  3/  3   N/A

$$




USA.gov is the U.S. government's official web portal to all federal, state and local government web resources and services.